| time (UTC) | temp F | wind direction | speed MPH | gust MPH | rain 1hr in | rain 24hr in | rain mn in | humidity % | barometer mb |
| 20260904225336 | 67 | 326 | 3.0 | 12.0 | 0.00 | 0.00 | 0.00 | 75 | 1020.9 |
| 20260904224851 | 67 | 292 | 4.0 | 12.0 | 0.00 | 0.00 | 0.00 | 75 | 1020.9 |
| 20260904224326 | 67 | 171 | 3.0 | 11.0 | 0.00 | 0.00 | 0.00 | 74 | 1020.9 |
| 20260904223818 | 67 | 222 | 3.0 | 8.0 | 0.00 | 0.00 | 0.00 | 74 | 1020.9 |
| 20260904223338 | 68 | 250 | 3.0 | 8.0 | 0.00 | 0.00 | 0.00 | 74 | 1020.9 |
| 20260904222834 | 68 | 288 | 2.0 | 8.0 | 0.00 | 0.00 | 0.00 | 74 | 1020.8 |
| 20260904222400 | 68 | 252 | 3.0 | 14.0 | 0.00 | 0.00 | 0.00 | 75 | 1020.8 |
| 20260904221832 | 68 | 267 | 3.0 | 14.0 | 0.00 | 0.00 | 0.00 | 75 | 1020.9 |
| 20260904221351 | 68 | 328 | 5.0 | 15.0 | 0.00 | 0.00 | 0.00 | 78 | 1020.9 |
| 20260904220845 | 68 | 304 | 3.0 | 15.0 | 0.00 | 0.00 | 0.00 | 80 | 1020.9 |
| 20260904220321 | 68 | 320 | 4.0 | 8.0 | 0.00 | 0.00 | 0.00 | 81 | 1020.8 |
| 20260904215818 | 68 | 292 | 3.0 | 10.0 | 0.00 | 0.00 | 0.00 | 82 | 1020.8 |
| 20260904215315 | 68 | 310 | 4.0 | 10.0 | 0.00 | 0.00 | 0.00 | 82 | 1020.7 |
| 20260904214829 | 68 | 278 | 4.0 | 12.0 | 0.00 | 0.00 | 0.00 | 82 | 1020.6 |
| 20260904214326 | 68 | 232 | 3.0 | 13.0 | 0.00 | 0.00 | 0.00 | 82 | 1020.6 |
| 20260904213820 | 68 | 291 | 6.0 | 12.0 | 0.00 | 0.00 | 0.00 | 82 | 1020.5 |
| 20260904213339 | 68 | 299 | 7.0 | 16.0 | 0.00 | 0.00 | 0.00 | 81 | 1020.5 |
| 20260904212833 | 69 | 307 | 8.0 | 16.0 | 0.00 | 0.00 | 0.00 | 81 | 1020.5 |
| 20260904212330 | 69 | 279 | 2.0 | 12.0 | 0.00 | 0.00 | 0.00 | 81 | 1020.3 |
| 20260904211829 | 69 | 315 | 4.0 | 12.0 | 0.00 | 0.00 | 0.00 | 81 | 1020.2 |
| 20260904211326 | 69 | 303 | 5.0 | 12.0 | 0.00 | 0.00 | 0.00 | 81 | 1020.2 |
| 20260904210825 | 69 | 310 | 3.0 | 9.0 | 0.00 | 0.00 | 0.00 | 81 | 1020.2 |
| 20260904210321 | 70 | 300 | 3.0 | 14.0 | 0.00 | 0.00 | 0.00 | 80 | 1020.1 |
| 20260904205817 | 70 | 281 | 4.0 | 14.0 | 0.00 | 0.00 | 0.00 | 80 | 1020.1 |
| 20260904205334 | 70 | 37 | 4.0 | 9.0 | 0.00 | 0.00 | 0.00 | 79 | 1019.9 |
| 20260904204850 | 70 | 207 | 3.0 | 10.0 | 0.00 | 0.00 | 0.00 | 78 | 1019.8 |
| 20260904204327 | 70 | 257 | 2.0 | 10.0 | 0.00 | 0.00 | 0.00 | 78 | 1019.9 |
| 20260904203822 | 71 | 254 | 4.0 | 11.0 | 0.00 | 0.00 | 0.00 | 77 | 1019.9 |
| 20260904203322 | 71 | 293 | 6.0 | 12.0 | 0.00 | 0.00 | 0.00 | 76 | 1019.8 |
| 20260904202838 | 71 | 294 | 5.0 | 12.0 | 0.00 | 0.00 | 0.00 | 75 | 1019.8 |
| 20260904202335 | 72 | 286 | 6.0 | 14.0 | 0.00 | 0.00 | 0.00 | 74 | 1019.8 |
| 20260904201851 | 72 | 315 | 8.0 | 15.0 | 0.00 | 0.00 | 0.00 | 73 | 1019.6 |
| 20260904201329 | 73 | 309 | 10.0 | 15.0 | 0.00 | 0.00 | 0.00 | 71 | 1019.6 |
| 20260904200825 | 73 | 271 | 4.0 | 16.0 | 0.00 | 0.00 | 0.00 | 70 | 1019.6 |
| 20260904200323 | 73 | 332 | 6.0 | 16.0 | 0.00 | 0.00 | 0.00 | 69 | 1019.4 |
| 20260904195838 | 73 | 252 | 4.0 | 12.0 | 0.00 | 0.00 | 0.00 | 69 | 1019.4 |
| 20260904195356 | 73 | 281 | 4.0 | 12.0 | 0.00 | 0.00 | 0.00 | 69 | 1019.3 |
| 20260904194850 | 73 | 54 | 4.0 | 9.0 | 0.00 | 0.00 | 0.00 | 69 | 1019.1 |
| 20260904194327 | 73 | 283 | 4.0 | 9.0 | 0.00 | 0.00 | 0.00 | 69 | 1019.1 |
| 20260904193821 | 73 | 275 | 2.0 | 9.0 | 0.00 | 0.00 | 0.00 | 70 | 1019.0 |
| 20260904193319 | 73 | 275 | 2.0 | 8.0 | 0.00 | 0.00 | 0.00 | 70 | 1018.9 |
| 20260904192815 | 73 | 291 | 3.0 | 10.0 | 0.00 | 0.00 | 0.00 | 70 | 1018.9 |
| 20260904192314 | 73 | 298 | 4.0 | 10.0 | 0.00 | 0.00 | 0.00 | 70 | 1018.8 |
| 20260904191826 | 73 | 279 | 3.0 | 10.0 | 0.00 | 0.00 | 0.00 | 70 | 1018.8 |
| 20260904191325 | 73 | 223 | 3.0 | 8.0 | 0.00 | 0.00 | 0.00 | 71 | 1018.8 |
| 20260904190822 | 73 | 301 | 1.0 | 11.0 | 0.00 | 0.00 | 0.00 | 71 | 1018.8 |
| 20260904190320 | 72 | 321 | 4.0 | 11.0 | 0.00 | 0.00 | 0.00 | 71 | 1018.7 |
| 20260904185814 | 72 | 266 | 2.0 | 9.0 | 0.00 | 0.00 | 0.00 | 71 | 1018.6 |
| 20260904185335 | 72 | 319 | 3.0 | 5.0 | 0.00 | 0.00 | 0.00 | 71 | 1018.5 |
| 20260904184852 | 72 | 332 | 3.0 | 5.0 | 0.00 | 0.00 | 0.00 | 71 | 1018.5 |
| 20260904184329 | 73 | 286 | 2.0 | 6.0 | 0.00 | 0.00 | 0.00 | 70 | 1018.4 |
| 20260904183825 | 73 | 254 | 2.0 | 4.0 | 0.00 | 0.00 | 0.00 | 70 | 1018.3 |
| 20260904183323 | 73 | 264 | 1.0 | 5.0 | 0.00 | 0.00 | 0.00 | 69 | 1018.2 |
| 20260904182819 | 73 | 273 | 1.0 | 8.0 | 0.00 | 0.00 | 0.00 | 68 | 1018.1 |
| 20260904182339 | 74 | 309 | 2.0 | 11.0 | 0.00 | 0.00 | 0.00 | 67 | 1018.0 |
| 20260904181814 | 75 | 323 | 8.0 | 13.0 | 0.00 | 0.00 | 0.00 | 66 | 1018.0 |
| 20260904181333 | 75 | 323 | 5.0 | 12.0 | 0.00 | 0.00 | 0.00 | 66 | 1018.0 |
| 20260904180830 | 75 | 311 | 5.0 | 16.0 | 0.00 | 0.00 | 0.00 | 65 | 1018.0 |
| 20260904180329 | 75 | 311 | 6.0 | 15.0 | 0.00 | 0.00 | 0.00 | 65 | 1018.0 |
| 20260904175824 | 76 | 315 | 7.0 | 15.0 | 0.00 | 0.00 | 0.00 | 64 | 1018.0 |
| 20260904175323 | 76 | 315 | 5.0 | 15.0 | 0.00 | 0.00 | 0.00 | 63 | 1018.0 |
| 20260904174839 | 76 | 336 | 8.0 | 15.0 | 0.00 | 0.00 | 0.00 | 62 | 1018.0 |
| 20260904174334 | 77 | 287 | 7.0 | 15.0 | 0.00 | 0.00 | 0.00 | 62 | 1017.8 |
| 20260904173851 | 77 | 291 | 8.0 | 12.0 | 0.00 | 0.00 | 0.00 | 61 | 1017.8 |
| 20260904173326 | 77 | 26 | 5.0 | 15.0 | 0.00 | 0.00 | 0.00 | 61 | 1017.7 |
| 20260904172820 | 78 | 295 | 4.0 | 15.0 | 0.00 | 0.00 | 0.00 | 60 | 1017.7 |
| 20260904172319 | 78 | 333 | 4.0 | 15.0 | 0.00 | 0.00 | 0.00 | 61 | 1017.6 |
| 20260904171817 | 78 | 275 | 4.0 | 12.0 | 0.00 | 0.00 | 0.00 | 60 | 1017.5 |
| 20260904171314 | 78 | 317 | 4.0 | 14.0 | 0.00 | 0.00 | 0.00 | 60 | 1017.4 |
| 20260904170831 | 79 | 236 | 7.0 | 14.0 | 0.00 | 0.00 | 0.00 | 59 | 1017.4 |
| 20260904170329 | 79 | 294 | 7.0 | 17.0 | 0.00 | 0.00 | 0.00 | 59 | 1017.4 |
| 20260904165826 | 79 | 306 | 6.0 | 18.0 | 0.00 | 0.00 | 0.00 | 58 | 1017.4 |
| 20260904165324 | 80 | 286 | 5.0 | 17.0 | 0.00 | 0.00 | 0.00 | 58 | 1017.3 |
| 20260904164820 | 80 | 286 | 7.0 | 13.0 | 0.00 | 0.00 | 0.00 | 57 | 1017.2 |
| 20260904164318 | 80 | 320 | 5.0 | 17.0 | 0.00 | 0.00 | 0.00 | 57 | 1017.3 |
| 20260904163816 | 81 | 305 | 8.0 | 18.0 | 0.00 | 0.00 | 0.00 | 57 | 1017.2 |
| 20260904163329 | 81 | 303 | 7.0 | 17.0 | 0.00 | 0.00 | 0.00 | 56 | 1017.1 |
| 20260904162825 | 82 | 330 | 7.0 | 16.0 | 0.00 | 0.00 | 0.00 | 55 | 1017.0 |
| 20260904162324 | 82 | 215 | 4.0 | 16.0 | 0.00 | 0.00 | 0.00 | 55 | 1016.9 |
| 20260904161820 | 82 | 277 | 8.0 | 16.0 | 0.00 | 0.00 | 0.00 | 55 | 1016.9 |
| 20260904161318 | 82 | 257 | 4.0 | 12.0 | 0.00 | 0.00 | 0.00 | 54 | 1016.8 |
| 20260904160813 | 83 | 280 | 7.0 | 14.0 | 0.00 | 0.00 | 0.00 | 52 | 1016.8 |
| 20260904160332 | 83 | 284 | 7.0 | 16.0 | 0.00 | 0.00 | 0.00 | 50 | 1016.7 |
| 20260904155848 | 83 | 290 | 9.0 | 17.0 | 0.00 | 0.00 | 0.00 | 49 | 1016.7 |
| 20260904155325 | 84 | 244 | 8.0 | 17.0 | 0.00 | 0.00 | 0.00 | 47 | 1016.6 |
| 20260904154820 | 84 | 264 | 7.0 | 14.0 | 0.00 | 0.00 | 0.00 | 47 | 1016.5 |
| 20260904154338 | 84 | 246 | 4.0 | 13.0 | 0.00 | 0.00 | 0.00 | 47 | 1016.6 |
| 20260904153832 | 85 | 270 | 6.0 | 14.0 | 0.00 | 0.00 | 0.00 | 47 | 1016.5 |
| 20260904153330 | 85 | 267 | 6.0 | 14.0 | 0.00 | 0.00 | 0.00 | 45 | 1016.5 |
| 20260904152827 | 85 | 207 | 6.0 | 12.0 | 0.00 | 0.00 | 0.00 | 47 | 1016.5 |
| 20260904152323 | 85 | 19 | 5.0 | 11.0 | 0.00 | 0.00 | 0.00 | 46 | 1016.6 |
| 20260904151819 | 85 | 259 | 5.0 | 17.0 | 0.00 | 0.00 | 0.00 | 45 | 1016.6 |
| 20260904151318 | 85 | 213 | 10.0 | 23.0 | 0.00 | 0.00 | 0.00 | 45 | 1016.5 |
| 20260904150833 | 85 | 233 | 6.0 | 23.0 | 0.00 | 0.00 | 0.00 | 46 | 1016.6 |
| 20260904150332 | 85 | 331 | 6.0 | 16.0 | 0.00 | 0.00 | 0.00 | 46 | 1016.6 |
| 20260904145930 | 85 | 290 | 9.0 | 17.0 | 0.00 | 0.00 | 0.00 | 47 | 1016.6 |
| 20260904145332 | 85 | 204 | 8.0 | 17.0 | 0.00 | 0.00 | 0.00 | 47 | 1016.6 |
| 20260904144827 | 85 | 343 | 4.0 | 14.0 | 0.00 | 0.00 | 0.00 | 48 | 1016.7 |
| 20260904144345 | 85 | 253 | 7.0 | 14.0 | 0.00 | 0.00 | 0.00 | 48 | 1016.9 |
| 20260904143821 | 84 | 271 | 3.0 | 17.0 | 0.00 | 0.00 | 0.00 | 49 | 1016.8 |
| 20260904143319 | 85 | 275 | 10.0 | 17.0 | 0.00 | 0.00 | 0.00 | 48 | 1016.7 |
| 20260904142836 | 86 | 279 | 9.0 | 18.0 | 0.00 | 0.00 | 0.00 | 47 | 1016.7 |
| 20260904142354 | 86 | 279 | 9.0 | 18.0 | 0.00 | 0.00 | 0.00 | 47 | 1016.8 |
| 20260904141848 | 85 | 274 | 7.0 | 16.0 | 0.00 | 0.00 | 0.00 | 47 | 1016.8 |
| 20260904141324 | 85 | 216 | 4.0 | 17.0 | 0.00 | 0.00 | 0.00 | 48 | 1016.8 |
| 20260904140840 | 85 | 297 | 5.0 | 17.0 | 0.00 | 0.00 | 0.00 | 48 | 1016.9 |
| 20260904140337 | 86 | 288 | 9.0 | 17.0 | 0.00 | 0.00 | 0.00 | 46 | 1016.9 |
| 20260904135848 | 86 | 269 | 6.0 | 15.0 | 0.00 | 0.00 | 0.00 | 48 | 1016.8 |
| 20260904135326 | 85 | 261 | 6.0 | 19.0 | 0.00 | 0.00 | 0.00 | 48 | 1016.8 |
| 20260904134822 | 85 | 313 | 7.0 | 21.0 | 0.00 | 0.00 | 0.00 | 48 | 1016.9 |
| 20260904134342 | 86 | 298 | 12.0 | 21.0 | 0.00 | 0.00 | 0.00 | 47 | 1017.0 |
| 20260904133817 | 85 | 191 | 7.0 | 18.0 | 0.00 | 0.00 | 0.00 | 48 | 1017.0 |
| 20260904133315 | 85 | 257 | 8.0 | 18.0 | 0.00 | 0.00 | 0.00 | 47 | 1017.1 |
| 20260904132831 | 86 | 265 | 6.0 | 19.0 | 0.00 | 0.00 | 0.00 | 47 | 1017.0 |
| 20260904132351 | 86 | 276 | 9.0 | 19.0 | 0.00 | 0.00 | 0.00 | 46 | 1017.0 |
| 20260904131826 | 86 | 276 | 7.0 | 19.0 | 0.00 | 0.00 | 0.00 | 46 | 1016.9 |
| 20260904131325 | 85 | 238 | 8.0 | 18.0 | 0.00 | 0.00 | 0.00 | 46 | 1017.0 |
| 20260904130819 | 85 | 167 | 10.0 | 18.0 | 0.00 | 0.00 | 0.00 | 48 | 1017.0 |
| 20260904130337 | 85 | 182 | 9.0 | 18.0 | 0.00 | 0.00 | 0.00 | 46 | 1017.1 |
| 20260904125832 | 85 | 198 | 8.0 | 22.0 | 0.00 | 0.00 | 0.00 | 46 | 1017.1 |
| 20260904125331 | 85 | 261 | 8.0 | 22.0 | 0.00 | 0.00 | 0.00 | 48 | 1017.2 |
| 20260904124828 | 86 | 109 | 5.0 | 19.0 | 0.00 | 0.00 | 0.00 | 46 | 1017.2 |
| 20260904124326 | 86 | 290 | 7.0 | 19.0 | 0.00 | 0.00 | 0.00 | 46 | 1017.2 |
| 20260904123823 | 86 | 135 | 7.0 | 17.0 | 0.00 | 0.00 | 0.00 | 48 | 1017.3 |
| 20260904123322 | 85 | 291 | 5.0 | 17.0 | 0.00 | 0.00 | 0.00 | 48 | 1017.4 |
| 20260904122817 | 85 | 283 | 6.0 | 19.0 | 0.00 | 0.00 | 0.00 | 48 | 1017.3 |
| 20260904122335 | 84 | 274 | 9.0 | 19.0 | 0.00 | 0.00 | 0.00 | 48 | 1017.5 |
| 20260904121832 | 85 | 140 | 7.0 | 19.0 | 0.00 | 0.00 | 0.00 | 47 | 1017.4 |
| 20260904121348 | 85 | 223 | 4.0 | 17.0 | 0.00 | 0.00 | 0.00 | 48 | 1017.4 |
| 20260904120825 | 84 | 228 | 5.0 | 21.0 | 0.00 | 0.00 | 0.00 | 48 | 1017.4 |
| 20260904120323 | 85 | 196 | 9.0 | 21.0 | 0.00 | 0.00 | 0.00 | 47 | 1017.6 |
| 20260904115839 | 85 | 157 | 5.0 | 14.0 | 0.00 | 0.00 | 0.00 | 46 | 1017.5 |
| 20260904115316 | 85 | 163 | 2.0 | 17.0 | 0.00 | 0.00 | 0.00 | 49 | 1017.5 |
| 20260904114832 | 84 | 277 | 8.0 | 20.0 | 0.00 | 0.00 | 0.00 | 48 | 1017.5 |
| 20260904114328 | 84 | 275 | 8.0 | 21.0 | 0.00 | 0.00 | 0.00 | 47 | 1017.5 |
| 20260904113821 | 84 | 329 | 8.0 | 21.0 | 0.00 | 0.00 | 0.00 | 47 | 1017.6 |
| 20260904113320 | 84 | 288 | 4.0 | 16.0 | 0.00 | 0.00 | 0.00 | 47 | 1017.5 |
| 20260904112817 | 84 | 204 | 7.0 | 17.0 | 0.00 | 0.00 | 0.00 | 47 | 1017.6 |
| 20260904112316 | 84 | 215 | 4.0 | 18.0 | 0.00 | 0.00 | 0.00 | 48 | 1017.6 |
| 20260904111829 | 84 | 250 | 8.0 | 20.0 | 0.00 | 0.00 | 0.00 | 48 | 1017.7 |
| 20260904111326 | 83 | 294 | 10.0 | 20.0 | 0.00 | 0.00 | 0.00 | 48 | 1017.6 |
| 20260904110821 | 84 | 329 | 6.0 | 16.0 | 0.00 | 0.00 | 0.00 | 48 | 1017.6 |
| 20260904110339 | 83 | 223 | 7.0 | 16.0 | 0.00 | 0.00 | 0.00 | 49 | 1017.7 |
| 20260904105854 | 83 | 217 | 8.0 | 16.0 | 0.00 | 0.00 | 0.00 | 48 | 1017.8 |
| 20260904105331 | 82 | 274 | 8.0 | 18.0 | 0.00 | 0.00 | 0.00 | 51 | 1017.8 |
| 20260904104828 | 82 | 253 | 5.0 | 18.0 | 0.00 | 0.00 | 0.00 | 50 | 1017.8 |
| 20260904104325 | 82 | 257 | 8.0 | 15.0 | 0.00 | 0.00 | 0.00 | 50 | 1018.0 |
| 20260904103820 | 82 | 195 | 5.0 | 19.0 | 0.00 | 0.00 | 0.00 | 51 | 1018.0 |
| 20260904103319 | 82 | 214 | 7.0 | 19.0 | 0.00 | 0.00 | 0.00 | 51 | 1018.1 |
| 20260904102814 | 81 | 252 | 6.0 | 13.0 | 0.00 | 0.00 | 0.00 | 54 | 1018.2 |
| 20260904102333 | 81 | 219 | 8.0 | 14.0 | 0.00 | 0.00 | 0.00 | 53 | 1018.2 |
| 20260904101845 | 81 | 237 | 8.0 | 18.0 | 0.00 | 0.00 | 0.00 | 52 | 1018.2 |
| 20260904101321 | 81 | 154 | 3.0 | 16.0 | 0.00 | 0.00 | 0.00 | 53 | 1018.2 |
| 20260904100836 | 81 | 262 | 11.0 | 16.0 | 0.00 | 0.00 | 0.00 | 53 | 1018.3 |
| 20260904100338 | 81 | 169 | 6.0 | 10.0 | 0.00 | 0.00 | 0.00 | 53 | 1018.3 |
| 20260904095851 | 81 | 281 | 5.0 | 15.0 | 0.00 | 0.00 | 0.00 | 52 | 1018.3 |
| 20260904095327 | 80 | 166 | 6.0 | 15.0 | 0.00 | 0.00 | 0.00 | 53 | 1018.3 |
| 20260904094842 | 80 | 199 | 4.0 | 15.0 | 0.00 | 0.00 | 0.00 | 53 | 1018.4 |
| 20260904094317 | 80 | 336 | 7.0 | 15.0 | 0.00 | 0.00 | 0.00 | 53 | 1018.6 |
| 20260904093835 | 80 | 277 | 7.0 | 14.0 | 0.00 | 0.00 | 0.00 | 54 | 1018.5 |
| 20260904093330 | 80 | 165 | 6.0 | 17.0 | 0.00 | 0.00 | 0.00 | 54 | 1018.5 |
| 20260904092815 | 79 | 246 | 8.0 | 16.0 | 0.00 | 0.00 | 0.00 | 54 | 1018.6 |
| 20260904092314 | 79 | 163 | 7.0 | 14.0 | 0.00 | 0.00 | 0.00 | 53 | 1018.6 |
| 20260904091829 | 79 | 243 | 4.0 | 14.0 | 0.00 | 0.00 | 0.00 | 53 | 1018.6 |
| 20260904091326 | 78 | 215 | 7.0 | 14.0 | 0.00 | 0.00 | 0.00 | 53 | 1018.6 |
| 20260904090841 | 78 | 216 | 7.0 | 14.0 | 0.00 | 0.00 | 0.00 | 54 | 1018.7 |
| 20260904090316 | 78 | 174 | 6.0 | 16.0 | 0.00 | 0.00 | 0.00 | 56 | 1018.6 |
| 20260904085831 | 78 | 197 | 9.0 | 14.0 | 0.00 | 0.00 | 0.00 | 58 | 1018.7 |
| 20260904085329 | 78 | 205 | 5.0 | 16.0 | 0.00 | 0.00 | 0.00 | 59 | 1018.6 |
| 20260904084841 | 77 | 290 | 7.0 | 16.0 | 0.00 | 0.00 | 0.00 | 61 | 1018.8 |
| 20260904084317 | 77 | 209 | 4.0 | 10.0 | 0.00 | 0.00 | 0.00 | 64 | 1018.8 |
| 20260904083831 | 77 | 244 | 4.0 | 13.0 | 0.00 | 0.00 | 0.00 | 65 | 1018.8 |
| 20260904083328 | 76 | 312 | 5.0 | 13.0 | 0.00 | 0.00 | 0.00 | 67 | 1018.8 |
| 20260904082821 | 75 | 179 | 4.0 | 15.0 | 0.00 | 0.00 | 0.00 | 69 | 1018.8 |
| 20260904082317 | 75 | 163 | 5.0 | 15.0 | 0.00 | 0.00 | 0.00 | 69 | 1018.8 |
| 20260904081833 | 75 | 225 | 5.0 | 14.0 | 0.00 | 0.00 | 0.00 | 71 | 1018.8 |
| 20260904081331 | 74 | 270 | 6.0 | 17.0 | 0.00 | 0.00 | 0.00 | 71 | 1018.8 |
| 20260904080826 | 74 | 217 | 5.0 | 17.0 | 0.00 | 0.00 | 0.00 | 73 | 1018.9 |
| 20260904080343 | 73 | 156 | 6.0 | 16.0 | 0.00 | 0.00 | 0.00 | 74 | 1018.9 |
| 20260904075817 | 73 | 221 | 7.0 | 14.0 | 0.00 | 0.00 | 0.00 | 74 | 1018.8 |
| 20260904075313 | 73 | 211 | 4.0 | 9.0 | 0.00 | 0.00 | 0.00 | 75 | 1018.8 |
| 20260904074831 | 73 | 225 | 3.0 | 14.0 | 0.00 | 0.00 | 0.00 | 76 | 1018.9 |
| 20260904074329 | 72 | 288 | 7.0 | 14.0 | 0.00 | 0.00 | 0.00 | 77 | 1018.9 |
| 20260904073822 | 72 | 71 | 4.0 | 9.0 | 0.00 | 0.00 | 0.00 | 78 | 1019.0 |
| 20260904073320 | 72 | 88 | 2.0 | 10.0 | 0.00 | 0.00 | 0.00 | 78 | 1019.1 |
| 20260904072815 | 71 | 258 | 3.0 | 10.0 | 0.00 | 0.00 | 0.00 | 80 | 1019.1 |
| 20260904072355 | 71 | 236 | 2.0 | 7.0 | 0.00 | 0.00 | 0.00 | 80 | 1019.2 |
| 20260904071829 | 70 | 242 | 4.0 | 7.0 | 0.00 | 0.00 | 0.00 | 80 | 1019.1 |
| 20260904071345 | 70 | 225 | 2.0 | 7.0 | 0.00 | 0.00 | 0.00 | 81 | 1019.1 |
| 20260904070819 | 69 | 221 | 4.0 | 7.0 | 0.00 | 0.00 | 0.00 | 81 | 1019.1 |
| 20260904070336 | 69 | 161 | 4.0 | 7.0 | 0.00 | 0.00 | 0.00 | 82 | 1019.2 |
| 20260904065856 | 68 | 194 | 5.0 | 7.0 | 0.00 | 0.00 | 0.00 | 83 | 1019.2 |
| 20260904065329 | 68 | 225 | 2.0 | 7.0 | 0.00 | 0.00 | 0.00 | 83 | 1019.2 |
| 20260904064822 | 67 | 211 | 4.0 | 7.0 | 0.00 | 0.00 | 0.00 | 84 | 1019.2 |
| 20260904064321 | 67 | 217 | 2.0 | 7.0 | 0.00 | 0.00 | 0.00 | 84 | 1019.2 |
| 20260904063816 | 67 | 196 | 2.0 | 6.0 | 0.00 | 0.00 | 0.00 | 85 | 1019.3 |
| 20260904063315 | 66 | 190 | 3.0 | 6.0 | 0.00 | 0.00 | 0.00 | 86 | 1019.4 |
| 20260904062850 | 66 | 171 | 3.0 | 7.0 | 0.00 | 0.00 | 0.00 | 88 | 1019.3 |
| 20260904062328 | 65 | 232 | 3.0 | 6.0 | 0.00 | 0.00 | 0.00 | 89 | 1019.3 |
| 20260904061824 | 64 | 173 | 2.0 | 7.0 | 0.00 | 0.00 | 0.00 | 91 | 1019.3 |
| 20260904061321 | 64 | 194 | 3.0 | 7.0 | 0.00 | 0.00 | 0.00 | 92 | 1019.3 |
| 20260904060837 | 63 | 171 | 3.0 | 8.0 | 0.00 | 0.00 | 0.00 | 93 | 1019.3 |
| 20260904060314 | 62 | 200 | 3.0 | 8.0 | 0.00 | 0.00 | 0.00 | 93 | 1019.3 |
| 20260904055831 | 62 | 158 | 2.0 | 10.0 | 0.00 | 0.00 | 0.00 | 93 | 1019.3 |
| 20260904055329 | 61 | 148 | 3.0 | 10.0 | 0.00 | 0.00 | 0.00 | 93 | 1019.3 |
| 20260904054823 | 60 | 190 | 2.0 | 5.0 | 0.00 | 0.00 | 0.00 | 93 | 1019.3 |
| 20260904054320 | 60 | 183 | 2.0 | 4.0 | 0.00 | 0.00 | 0.00 | 93 | 1019.3 |
| 20260904053816 | 60 | 207 | 2.0 | 4.0 | 0.00 | 0.00 | 0.00 | 93 | 1019.3 |
| 20260904053315 | 60 | 198 | 2.0 | 3.0 | 0.00 | 0.00 | 0.00 | 93 | 1019.3 |
| 20260904052830 | 60 | 195 | 2.0 | 3.0 | 0.00 | 0.00 | 0.00 | 93 | 1019.3 |
| 20260904052329 | 60 | 211 | 2.0 | 3.0 | 0.00 | 0.00 | 0.00 | 93 | 1019.2 |
| 20260904051844 | 60 | 212 | 2.0 | 3.0 | 0.00 | 0.00 | 0.00 | 93 | 1019.2 |
| 20260904051319 | 59 | 212 | 1.0 | 2.0 | 0.00 | 0.00 | 0.00 | 93 | 1019.1 |
| 20260904050830 | 59 | 212 | 1.0 | 2.0 | 0.00 | 0.00 | 0.00 | 93 | 1019.1 |
| 20260904050326 | 59 | 211 | 1.0 | 2.0 | 0.00 | 0.00 | 0.00 | 93 | 1019.1 |
| 20260904045822 | 59 | 211 | 1.0 | 3.0 | 0.00 | 0.00 | 0.00 | 93 | 1019.1 |
| 20260904045339 | 59 | 212 | 1.0 | 3.0 | 0.00 | 0.00 | 0.00 | 93 | 1019.1 |
| 20260904044854 | 59 | 290 | 1.0 | 2.0 | 0.00 | 0.00 | 0.00 | 93 | 1019.1 |
| 20260904044330 | 59 | 290 | 1.0 | 2.0 | 0.00 | 0.00 | 0.00 | 93 | 1019.1 |
| 20260904043845 | 59 | 290 | 1.0 | 1.0 | 0.00 | 0.00 | 0.00 | 92 | 1019.2 |
| 20260904043322 | 59 | 290 | 0.0 | 1.0 | 0.00 | 0.00 | 0.00 | 92 | 1019.2 |
| 20260904042838 | 59 | 290 | 0.0 | 1.0 | 0.00 | 0.00 | 0.00 | 92 | 1019.2 |
| 20260904042357 | 59 | 290 | 0.0 | 1.0 | 0.00 | 0.00 | 0.00 | 92 | 1019.3 |
| 20260904041829 | 59 | 290 | 0.0 | 1.0 | 0.00 | 0.00 | 0.00 | 92 | 1019.2 |
| 20260904041325 | 59 | 290 | 0.0 | 1.0 | 0.00 | 0.00 | 0.00 | 92 | 1019.4 |
| 20260904040818 | 59 | 290 | 0.0 | 1.0 | 0.00 | 0.00 | 0.00 | 92 | 1019.5 |
| 20260904040336 | 60 | 290 | 0.0 | 1.0 | 0.00 | 0.00 | 0.00 | 92 | 1019.5 |
| 20260904035852 | 60 | 290 | 0.0 | 1.0 | 0.00 | 0.00 | 0.00 | 92 | 1019.6 |
| 20260904035347 | 60 | 290 | 0.0 | 0.0 | 0.00 | 0.00 | 0.00 | 92 | 1019.6 |
| 20260904034822 | 60 | 290 | 0.0 | 0.0 | 0.00 | 0.00 | 0.00 | 92 | 1019.7 |
| 20260904034320 | 60 | 290 | 0.0 | 1.0 | 0.00 | 0.00 | 0.00 | 92 | 1019.7 |
| 20260904033817 | 60 | 290 | 0.0 | 1.0 | 0.00 | 0.00 | 0.00 | 92 | 1019.8 |
| 20260904033335 | 60 | 290 | 0.0 | 1.0 | 0.00 | 0.00 | 0.00 | 92 | 1019.7 |
| 20260904032830 | 60 | 290 | 1.0 | 1.0 | 0.00 | 0.00 | 0.00 | 92 | 1019.8 |
| 20260904032328 | 60 | 290 | 0.0 | 0.0 | 0.00 | 0.00 | 0.00 | 92 | 1019.7 |
| 20260904031839 | 60 | 290 | 0.0 | 1.0 | 0.00 | 0.00 | 0.00 | 92 | 1019.7 |
| 20260904031335 | 60 | 290 | 0.0 | 1.0 | 0.00 | 0.00 | 0.00 | 92 | 1019.7 |
| 20260904030848 | 60 | 290 | 0.0 | 1.0 | 0.00 | 0.00 | 0.00 | 92 | 1019.7 |
| 20260904030326 | 60 | 290 | 0.0 | 1.0 | 0.00 | 0.00 | 0.00 | 92 | 1019.7 |
| 20260904025817 | 60 | 290 | 0.0 | 0.0 | 0.00 | 0.00 | 0.00 | 92 | 1019.8 |
| 20260904025334 | 60 | 290 | 0.0 | 1.0 | 0.00 | 0.00 | 0.00 | 92 | 1019.8 |
| 20260904024850 | 60 | 290 | 0.0 | 1.0 | 0.00 | 0.00 | 0.00 | 91 | 1019.8 |
| 20260904024327 | 61 | 290 | 0.0 | 1.0 | 0.00 | 0.00 | 0.00 | 92 | 1019.9 |
| 20260904023823 | 61 | 290 | 0.0 | 1.0 | 0.00 | 0.00 | 0.00 | 92 | 1019.9 |
| 20260904023321 | 61 | 290 | 0.0 | 1.0 | 0.00 | 0.00 | 0.00 | 91 | 1019.9 |
| 20260904022816 | 61 | 290 | 0.0 | 1.0 | 0.00 | 0.00 | 0.00 | 91 | 1020.1 |
| 20260904022314 | 61 | 290 | 0.0 | 0.0 | 0.00 | 0.00 | 0.00 | 91 | 1020.2 |
| 20260904021854 | 61 | 290 | 0.0 | 1.0 | 0.00 | 0.00 | 0.00 | 91 | 1020.3 |
| 20260904021352 | 61 | 290 | 0.0 | 1.0 | 0.00 | 0.00 | 0.00 | 91 | 1020.3 |
| 20260904020827 | 61 | 290 | 0.0 | 0.0 | 0.00 | 0.00 | 0.00 | 91 | 1020.4 |
| 20260904020324 | 61 | 290 | 0.0 | 0.0 | 0.00 | 0.00 | 0.00 | 91 | 1020.4 |
| 20260904015819 | 61 | 290 | 0.0 | 1.0 | 0.00 | 0.00 | 0.00 | 91 | 1020.5 |
| 20260904015336 | 61 | 290 | 0.0 | 1.0 | 0.00 | 0.00 | 0.00 | 91 | 1020.6 |
| 20260904014829 | 61 | 290 | 0.0 | 1.0 | 0.00 | 0.00 | 0.00 | 91 | 1020.6 |
| 20260904014329 | 62 | 290 | 0.0 | 1.0 | 0.00 | 0.00 | 0.00 | 91 | 1020.7 |
| 20260904013821 | 62 | 290 | 1.0 | 1.0 | 0.00 | 0.00 | 0.00 | 91 | 1020.7 |
| 20260904013340 | 62 | 290 | 0.0 | 1.0 | 0.00 | 0.00 | 0.00 | 91 | 1020.8 |
| 20260904012814 | 62 | 290 | 0.0 | 1.0 | 0.00 | 0.00 | 0.00 | 91 | 1020.9 |
| 20260904012333 | 62 | 290 | 0.0 | 0.0 | 0.00 | 0.00 | 0.00 | 91 | 1020.9 |
| 20260904011826 | 62 | 290 | 0.0 | 0.0 | 0.00 | 0.00 | 0.00 | 91 | 1020.9 |
| 20260904011324 | 62 | 290 | 0.0 | 1.0 | 0.00 | 0.00 | 0.00 | 90 | 1021.1 |
| 20260904010819 | 62 | 290 | 0.0 | 1.0 | 0.00 | 0.00 | 0.00 | 90 | 1021.1 |
| 20260904010317 | 62 | 290 | 0.0 | 0.0 | 0.00 | 0.00 | 0.00 | 90 | 1021.1 |
| 20260904005832 | 62 | 290 | 0.0 | 0.0 | 0.00 | 0.00 | 0.00 | 90 | 1021.2 |
| 20260904005330 | 62 | 290 | 0.0 | 0.0 | 0.00 | 0.00 | 0.00 | 90 | 1021.2 |
| 20260904004825 | 62 | 290 | 0.0 | 0.0 | 0.00 | 0.00 | 0.00 | 90 | 1021.3 |
| 20260904004324 | 62 | 290 | 0.0 | 0.0 | 0.00 | 0.00 | 0.00 | 90 | 1021.4 |
| 20260904003819 | 63 | 290 | 0.0 | 0.0 | 0.00 | 0.00 | 0.00 | 90 | 1021.4 |
| 20260904003337 | 63 | 290 | 0.0 | 1.0 | 0.00 | 0.00 | 0.00 | 89 | 1021.4 |
| 20260904002826 | 63 | 290 | 0.0 | 1.0 | 0.00 | 0.00 | 0.00 | 89 | 1021.3 |
| 20260904002343 | 63 | 290 | 0.0 | 1.0 | 0.00 | 0.00 | 0.00 | 89 | 1021.3 |
| 20260904001818 | 63 | 290 | 0.0 | 0.0 | 0.00 | 0.00 | 0.00 | 89 | 1021.3 |
| 20260904001315 | 63 | 290 | 0.0 | 1.0 | 0.00 | 0.00 | 0.00 | 88 | 1021.4 |
| 20260904000830 | 63 | 290 | 0.0 | 1.0 | 0.00 | 0.00 | 0.00 | 88 | 1021.5 |
| 20260904000328 | 63 | 290 | 0.0 | 0.0 | 0.00 | 0.00 | 0.00 | 88 | 1021.5 |
| 20260903235822 | 64 | 290 | 0.0 | 0.0 | 0.00 | 0.00 | 0.00 | 88 | 1021.5 |
| 20260903235338 | 64 | 290 | 0.0 | 0.0 | 0.00 | 0.00 | 0.00 | 87 | 1021.6 |
| 20260903234832 | 64 | 290 | 0.0 | 0.0 | 0.00 | 0.00 | 0.00 | 87 | 1021.6 |
| 20260903234330 | 65 | 290 | 0.0 | 0.0 | 0.00 | 0.00 | 0.00 | 86 | 1021.7 |
| 20260903233845 | 65 | 290 | 0.0 | 0.0 | 0.00 | 0.00 | 0.00 | 86 | 1021.6 |
| 20260903233321 | 65 | 290 | 0.0 | 0.0 | 0.00 | 0.00 | 0.00 | 86 | 1021.6 |
| 20260903232817 | 65 | 290 | 0.0 | 0.0 | 0.00 | 0.00 | 0.00 | 86 | 1021.6 |
| 20260903232314 | 65 | 290 | 0.0 | 0.0 | 0.00 | 0.00 | 0.00 | 86 | 1021.7 |
| 20260903231828 | 66 | 290 | 0.0 | 0.0 | 0.00 | 0.00 | 0.00 | 86 | 1021.8 |
| 20260903231326 | 66 | 290 | 0.0 | 0.0 | 0.00 | 0.00 | 0.00 | 86 | 1021.8 |
| 20260903230821 | 66 | 290 | 0.0 | 1.0 | 0.00 | 0.00 | 0.00 | 86 | 1021.8 |
| 20260903230317 | 67 | 290 | 0.0 | 1.0 | 0.00 | 0.00 | 0.00 | 85 | 1021.8 |
| 20260903225832 | 67 | 290 | 0.0 | 1.0 | 0.00 | 0.00 | 0.00 | 85 | 1021.8 |